Location: Enid
(36.3960°N, 97.8780°W)
Time: 09:04:37
(UTC-05:00)

HST - Visible Passes

Search period start: 02 September 2014 00:00
Search period end: 12 September 2014 00:00
Orbit: 547 x 552 km, 28.5° (Epoch: 01 September)

Date Brightness Start Highest point End Pass type
(mag) Time Alt. Az. Time Alt. Az. Time Alt. Az.
05 Sep 3.4 22:03:19 10° SW 22:03:38 11° SW 22:03:38 11° SW visible
06 Sep 2.9 20:16:50 10° S 20:18:43 13° SSE 20:20:35 10° SE visible
06 Sep 3.0 21:56:08 10° SW 21:57:17 16° SW 21:57:17 16° SW visible
07 Sep 2.7 21:49:00 10° SW 21:50:50 20° SSW 21:50:50 20° SSW visible
08 Sep 2.4 21:41:55 10° WSW 21:44:19 24° SSW 21:44:19 24° SSW visible
09 Sep 2.2 21:34:53 10° WSW 21:37:45 26° SSW 21:37:45 26° SSW visible
10 Sep 2.1 21:27:52 10° WSW 21:31:08 26° S 21:31:08 26° S visible
11 Sep 2.2 21:20:54 10° WSW 21:24:21 25° S 21:24:30 25° S visible
